GFSMA_925_thetae_198.txt.gz
Theta_e
347 348 352 350 351 350 352 349 348 348 345 347 348 348 349 348 345 346 345 339 338 336 342 343 345 350 350 348 349 348 346 348 349 347 345 344 344 345 344 343 343 344 343
350 350 352 351 350 348 349 351 350 352 349 348 350 350 348 349 348 349 347 341 341 340 341 342 348 351 351 350 350 350 350 349 346 345 346 346 345 346 345 344 345 345 343
353 353 353 351 350 351 349 349 351 350 350 349 350 351 349 347 345 348 349 350 344 343 340 341 343 346 349 349 347 346 341 341 341 343 344 345 345 345 344 343 343 344 344
352 353 351 346 350 354 352 350 345 352 349 350 348 350 352 347 345 350 344 348 351 344 340 340 338 337 339 341 341 342 343 345 342 340 343 339 339 342 343 344 345 344 343
351 352 343 341 351 353 344 351 352 351 350 352 350 348 349 349 348 350 348 345 350 347 347 336 335 336 339 342 343 345 344 344 342 343 341 342 341 340 339 340 343 343 342
350 350 351 343 353 350 343 352 351 352 353 352 349 350 349 347 348 349 348 347 348 345 350 346 337 338 340 341 347 344 342 335 334 340 342 343 342 341 340 340 339 341 342
350 351 351 353 351 349 351 351 353 353 348 352 351 351 349 348 348 348 349 348 349 349 348 349 347 345 343 343 344 345 340 332 332 342 346 344 342 342 343 343 343 340 340
346 350 350 350 349 349 349 350 350 353 352 349 351 347 349 350 348 349 347 350 348 348 347 348 349 347 348 345 346 346 344 334 334 341 344 344 342 342 341 341 342 342 338
349 349 353 353 351 354 351 348 353 351 344 337 350 339 349 347 344 346 348 349 349 347 346 347 347 345 348 349 348 347 341 335 338 341 342 343 343 341 342 341 342 343 337
352 354 348 352 352 352 352 351 354 352 353 352 351 342 347 347 341 344 343 349 350 349 346 348 345 346 346 350 349 347 341 335 339 341 342 343 342 341 341 339 338 337 337
346 355 354 350 352 352 353 353 353 353 351 352 348 343 348 350 347 348 349 352 348 350 347 345 347 348 347 348 348 345 340 336 339 341 342 343 341 341 344 342 340 340 341
350 346 349 354 351 352 353 352 353 355 354 355 352 352 354 351 349 349 347 345 350 345 349 346 344 347 347 349 349 345 339 336 338 341 342 341 342 344 340 341 343 342 341
349 350 347 353 355 352 353 354 353 353 353 355 356 355 353 354 351 347 347 346 339 347 348 348 348 347 349 348 346 344 340 337 337 341 342 342 343 344 344 345 346 345 345
349 348 353 355 351 353 354 353 352 353 355 354 355 354 350 350 352 353 344 339 342 342 350 351 350 348 350 348 348 343 340 337 337 338 341 342 342 343 344 344 344 344 343
352 351 350 336 351 354 354 354 353 352 352 352 353 353 353 349 351 353 349 349 352 354 351 349 352 351 350 350 346 346 342 337 336 336 337 340 342 343 343 343 344 344 344
348 346 354 350 352 354 354 354 354 353 352 353 354 353 352 354 354 350 350 349 351 352 352 350 352 352 350 347 350 348 343 337 336 336 335 334 334 337 341 342 343 343 344
349 348 348 353 354 352 352 353 352 353 352 352 353 352 352 352 353 354 353 349 349 349 350 350 351 353 351 348 349 345 338 338 338 339 339 338 338 337 335 334 341 342 343
349 349 347 348 354 355 354 352 353 353 354 353 355 353 354 353 354 352 350 353 353 352 350 346 346 350 351 348 347 342 341 340 339 338 338 338 337 337 337 338 336 335 340
351 351 352 350 353 357 354 355 353 353 354 355 353 354 353 353 352 355 354 353 353 354 352 344 350 351 353 349 346 344 341 340 337 335 334 336 335 335 335 337 338 339 334
353 354 353 352 352 350 357 356 355 355 355 355 355 353 353 352 354 354 351 350 352 352 352 352 349 351 351 351 347 342 337 336 334 330 330 330 329 330 331 333 334 335 337
353 354 355 354 354 354 353 354 354 353 352 353 354 353 353 353 353 353 353 352 351 353 351 352 352 350 353 347 344 340 337 335 333 332 329 327 327 326 328 330 331 333 334
356 356 357 356 357 357 354 352 352 354 353 352 354 355 353 354 353 353 353 353 353 352 351 351 350 352 352 350 346 342 337 332 330 329 327 323 325 323 323 325 325 327 328
359 358 358 358 358 357 356 355 353 351 353 351 352 353 354 353 353 352 352 351 351 350 349 349 350 347 348 352 348 343 338 335 332 328 328 319 320 320 321 322 324 325 325
359 357 357 357 358 358 357 355 353 352 351 350 351 352 353 353 352 353 352 353 352 348 346 346 349 348 349 349 351 346 341 337 334 326 327 318 318 317 319 320 321 322 322
357 356 355 356 358 358 357 356 355 354 351 351 352 351 349 352 352 350 351 351 353 353 353 351 350 350 350 350 351 347 339 333 323 322 323 319 316 315 316 317 318 319 320
350 351 352 351 350 351 353 355 353 353 353 352 353 353 350 347 347 349 348 350 351 353 352 349 348 348 349 350 351 350 346 333 326 321 321 320 315 316 313 313 315 316 316

GFSMA_925_thetae_201.txt.gz
Theta_e
347 349 348 349 349 349 349 350 348 348 345 346 346 345 346 344 343 345 339 339 339 341 342 342 344 345 346 349 348 345 343 345 347 345 343 345 345 344 343 342 343 345 343
349 347 351 350 350 351 350 350 348 346 349 347 347 344 345 347 346 345 341 340 336 339 343 342 344 347 348 346 346 346 344 343 342 342 346 346 345 344 344 345 344 343 343
350 350 349 350 349 351 351 351 351 350 347 348 349 347 349 349 348 348 347 343 339 341 342 341 343 343 341 341 343 344 344 347 345 345 344 344 345 344 344 344 344 343 344
350 347 348 347 347 350 349 352 347 346 343 348 349 350 349 347 344 349 349 347 343 343 341 339 341 336 337 340 340 339 338 337 337 337 337 338 338 343 343 343 343 343 343
350 350 342 338 343 349 343 341 349 349 349 349 350 350 349 345 343 347 348 347 348 346 341 340 337 334 339 343 342 342 343 343 342 342 339 339 340 338 338 339 342 343 343
352 350 348 346 343 347 344 348 351 352 352 350 350 350 349 349 345 348 349 348 348 347 340 340 336 336 339 342 343 346 344 341 336 337 341 342 342 340 338 338 337 341 342
349 351 350 348 350 352 350 349 352 351 348 350 349 348 349 350 349 349 346 348 349 347 347 346 342 336 339 342 342 344 344 336 335 338 345 345 343 343 343 343 341 339 338
346 350 351 352 352 353 352 353 351 352 350 344 349 345 343 348 348 348 346 348 348 346 348 347 346 342 343 345 343 345 343 335 335 341 344 343 343 342 342 341 342 342 340
347 348 347 351 346 349 350 351 346 352 349 346 340 339 345 345 343 345 347 348 348 347 349 348 348 348 345 346 346 346 344 335 339 342 342 343 343 342 341 341 341 342 342
346 351 349 353 349 351 351 350 352 351 351 345 340 346 341 346 340 335 339 347 349 348 348 348 347 347 346 347 347 347 342 337 339 340 342 343 342 341 341 339 337 341 342
350 352 353 351 350 352 352 352 350 351 351 348 337 340 344 345 344 344 347 348 350 350 348 347 348 346 348 349 348 346 340 337 339 340 341 342 341 342 344 342 338 335 335
344 345 353 353 350 353 352 351 353 353 353 352 350 348 349 347 348 346 342 339 343 343 342 347 347 346 347 347 347 345 340 337 339 340 341 341 342 342 340 341 340 340 340
347 346 348 345 352 352 352 350 353 351 349 352 349 353 350 349 349 349 344 340 342 344 349 347 348 349 348 347 347 342 338 337 338 341 341 341 343 343 343 345 344 343 343
347 348 350 350 351 354 351 352 355 352 352 354 352 353 352 346 347 349 347 342 338 338 347 349 349 347 348 347 346 342 338 337 337 339 341 341 341 342 343 344 343 345 345
351 350 350 338 349 351 353 353 355 353 352 352 352 352 352 350 351 350 349 343 341 343 341 348 351 349 348 347 345 341 339 337 337 337 338 340 341 342 342 343 343 343 343
348 351 348 349 344 346 355 354 353 354 352 353 352 355 354 351 352 352 350 347 346 349 344 347 349 350 349 347 345 341 339 337 336 335 334 334 335 339 341 342 342 342 343
351 350 352 353 352 353 351 352 353 352 351 353 352 352 352 351 351 352 348 344 351 348 344 349 350 347 339 346 346 342 338 336 336 337 339 338 337 337 334 337 341 342 342
349 347 347 348 350 354 353 353 352 351 352 353 354 352 353 354 352 354 354 352 352 350 348 347 336 336 346 346 347 338 336 337 338 338 338 338 337 338 338 337 333 338 341
346 347 347 347 345 345 353 356 354 353 351 351 353 353 351 352 352 352 353 353 351 351 348 347 344 338 346 347 341 339 340 339 337 336 335 335 335 335 336 338 338 335 335
351 350 351 351 351 351 349 353 356 355 355 354 353 355 354 353 351 351 352 354 349 350 350 342 348 348 349 346 342 340 336 337 336 334 330 331 332 333 334 334 335 337 338
354 351 351 354 353 352 352 353 349 353 356 355 354 354 353 353 352 353 351 352 351 351 351 350 349 349 350 343 341 338 336 335 332 330 329 329 329 330 330 332 333 334 334
354 355 354 352 354 354 355 355 354 352 351 352 352 350 351 354 353 353 354 354 353 352 351 350 349 350 349 346 343 340 337 332 331 330 329 326 327 326 325 326 327 329 331
355 356 356 356 356 357 357 357 356 354 352 351 352 352 349 353 354 353 352 352 352 352 351 351 350 349 350 349 345 341 338 334 332 331 329 320 322 322 323 324 325 327 329
358 357 357 355 355 353 355 356 355 356 354 352 350 352 353 348 352 352 353 353 351 351 351 350 349 346 349 347 349 347 342 336 334 329 328 319 318 318 320 322 324 324 325
359 357 355 354 354 354 355 356 356 355 355 353 352 350 350 350 349 350 349 351 352 351 350 351 349 347 345 350 349 347 338 334 324 323 325 322 317 316 317 319 321 322 323
347 347 347 348 347 347 349 352 352 354 353 353 352 352 352 351 350 348 349 347 350 351 350 351 351 349 350 349 348 349 346 336 328 322 324 324 317 317 315 315 318 319 319

GFSMA_925_thetae_207.txt.gz
Theta_e
348 347 347 348 346 345 343 346 344 345 343 342 339 340 340 341 340 337 340 338 340 342 343 344 344 346 346 349 349 348 347 346 344 345 347 346 344 342 342 342 344 343 343
349 348 347 346 348 347 346 346 346 344 344 344 343 339 340 342 343 343 342 339 340 341 341 342 343 345 349 350 349 348 345 347 347 345 344 343 342 345 342 341 342 341 343
348 347 348 347 348 346 341 348 347 347 346 345 346 345 341 343 342 342 341 342 339 338 339 340 341 346 349 349 349 349 345 342 341 341 341 341 343 342 343 344 344 341 342
347 348 344 345 348 347 344 348 348 346 344 345 345 346 344 343 345 345 344 342 340 338 338 340 341 343 346 346 350 347 343 342 342 342 344 343 342 342 343 342 341 342 342
349 348 343 340 345 345 346 340 342 343 346 346 346 347 347 343 344 345 344 344 343 341 338 341 340 341 342 346 350 348 345 343 340 339 338 337 336 336 337 341 343 343 342
346 348 347 342 344 346 347 346 347 346 347 346 346 348 349 346 346 345 346 344 345 344 341 341 340 340 340 337 343 341 340 341 341 343 341 340 340 337 337 337 338 341 342
344 349 349 347 348 347 348 348 348 349 348 347 347 347 348 350 348 347 345 345 344 345 344 343 341 339 335 336 339 340 340 340 339 337 335 335 338 341 340 340 337 336 338
345 349 349 348 348 349 348 349 350 349 344 346 344 343 341 344 346 347 346 346 347 346 345 344 343 343 336 337 340 341 342 342 341 336 337 341 341 343 342 342 342 337 336
348 349 349 348 349 348 348 349 350 345 346 341 342 341 340 343 341 345 346 346 347 347 346 346 344 343 342 336 339 342 343 344 344 336 341 343 342 341 341 341 341 343 342
350 348 349 347 351 348 350 349 350 349 348 342 342 342 343 343 339 337 340 345 346 346 346 347 345 345 346 344 339 340 344 344 344 337 343 342 342 341 342 340 341 340 340
350 347 346 350 347 348 349 351 350 350 349 346 342 341 340 341 341 340 341 345 346 346 347 346 347 347 346 344 344 344 344 345 342 337 340 343 342 340 340 340 338 337 341
348 349 348 350 349 349 350 350 351 351 351 349 342 345 346 346 344 343 342 341 345 346 346 344 345 346 347 347 346 345 346 346 340 337 339 340 340 340 341 343 341 335 337
347 346 345 345 349 349 349 351 350 350 351 350 350 349 347 347 340 344 344 341 339 342 343 343 345 346 347 346 346 346 346 345 339 337 340 340 343 343 341 341 342 342 336
348 347 347 346 348 347 347 349 350 350 351 351 352 351 351 349 348 347 347 341 337 338 341 347 345 345 347 346 346 347 347 342 338 338 339 340 340 342 343 342 342 342 342
349 347 349 349 348 349 350 350 349 351 352 352 350 350 350 350 347 347 345 345 340 337 337 344 348 346 348 348 348 348 343 339 338 339 338 340 340 340 342 343 343 343 343
348 350 349 350 348 346 347 350 347 350 351 352 351 351 350 349 348 346 346 347 340 342 338 341 346 348 348 348 347 344 342 339 338 338 338 337 338 340 340 341 342 342 343
348 348 349 349 347 347 347 344 350 351 350 352 351 350 351 350 349 350 349 349 348 345 343 344 344 348 348 347 346 344 341 339 338 337 336 335 334 334 336 339 340 342 342
348 350 351 349 349 349 350 350 351 351 351 351 351 350 351 351 351 350 351 350 347 347 345 342 346 346 346 345 345 343 341 338 337 335 335 338 338 338 338 336 335 340 341
348 348 350 350 349 348 348 348 349 349 350 352 352 351 350 350 351 350 350 350 349 346 348 345 343 345 344 344 343 340 339 337 335 335 337 337 337 337 337 337 337 334 339
347 347 346 346 347 345 346 348 349 349 348 348 350 351 352 352 352 352 350 350 350 350 348 346 341 341 341 342 342 340 336 335 333 335 335 335 335 335 336 336 336 337 334
349 351 351 349 346 349 349 349 350 351 351 350 350 350 349 350 352 353 351 350 350 350 349 346 343 342 343 341 340 338 337 336 334 335 335 334 333 334 335 335 335 335 337
352 353 353 353 353 351 351 352 352 352 353 352 353 352 351 350 350 351 351 350 350 350 350 347 344 345 345 342 340 339 337 333 331 333 334 333 332 333 335 334 333 334 334
353 353 353 353 354 354 353 352 353 353 353 351 351 352 351 352 350 350 350 351 351 351 349 350 348 346 345 345 342 340 338 337 337 337 334 331 331 331 331 332 333 332 332
353 353 353 353 353 353 353 353 353 352 351 350 351 351 351 352 352 351 349 349 350 351 352 349 350 350 349 347 346 345 343 338 337 336 335 329 330 329 330 328 328 328 327
353 353 353 352 350 350 347 347 348 346 346 348 349 350 351 352 352 351 351 349 348 348 350 351 350 350 350 348 348 345 340 336 332 330 331 331 327 326 326 325 326 326 326
354 352 348 346 343 343 340 340 340 340 342 343 342 343 347 348 348 349 351 350 349 349 348 348 349 349 347 347 347 347 344 338 335 326 331 328 325 325 320 323 324 324 326

GFSMA_925_thetae_210.txt.gz
Theta_e
348 348 346 346 346 345 343 344 344 344 344 342 343 343 339 338 340 335 337 338 338 339 340 341 346 346 348 348 347 347 347 345 344 344 344 345 343 343 342 342 342 342 342
346 346 347 347 346 346 344 344 345 344 344 343 341 338 338 339 341 337 340 339 338 339 340 341 342 345 343 349 349 347 346 344 345 346 345 343 342 342 342 343 341 342 342
346 346 346 346 347 346 347 345 346 346 344 343 344 343 341 339 341 343 342 341 339 339 339 339 340 342 346 347 349 349 347 346 344 341 341 340 339 339 341 341 341 342 342
347 346 347 345 347 345 343 347 346 346 346 344 344 345 345 341 343 341 342 341 341 339 339 338 340 341 342 345 348 348 346 342 342 341 340 341 342 342 341 341 342 341 341
347 347 346 342 346 346 346 344 346 344 346 344 344 345 345 343 343 343 344 343 343 341 339 339 341 340 340 348 350 346 345 344 342 339 338 338 336 336 335 337 340 341 341
344 347 346 341 342 341 345 344 345 342 346 344 345 347 347 345 342 343 344 344 343 344 343 341 340 341 339 338 340 340 341 340 339 338 341 342 341 340 338 334 335 338 342
347 344 347 346 345 347 347 347 347 347 347 345 346 346 348 349 347 346 344 345 346 344 344 344 341 341 340 336 335 338 339 340 339 339 338 336 335 336 339 340 339 337 336
345 345 348 348 347 347 348 348 348 348 346 344 344 343 347 346 348 348 346 346 344 345 345 344 344 343 342 336 336 338 340 341 341 341 340 337 341 341 341 342 341 340 336
346 345 348 348 347 348 347 348 348 347 346 341 345 342 346 349 342 346 346 345 345 345 346 345 345 344 343 342 336 338 340 342 343 344 339 338 343 341 341 341 340 341 341
347 348 347 348 348 350 347 349 349 349 348 344 342 340 341 342 346 344 341 345 346 345 346 345 345 345 344 343 342 337 338 342 343 344 339 339 342 341 341 341 340 341 341
348 348 348 348 349 348 349 348 350 349 348 344 341 343 340 341 340 340 345 343 344 345 346 345 345 346 344 345 345 344 342 340 344 345 339 338 341 341 340 340 340 338 340
349 349 347 347 349 347 347 349 350 351 350 349 346 343 345 344 344 342 345 344 345 346 345 346 345 346 346 346 345 343 344 344 344 345 338 338 339 340 339 341 344 340 335
346 347 347 346 349 348 349 350 350 349 350 349 349 344 347 346 341 344 344 343 342 342 344 346 345 344 345 346 347 346 346 345 346 341 337 338 340 342 342 339 342 342 341
347 345 346 347 343 346 348 348 349 350 350 350 349 350 350 349 347 343 346 344 342 338 340 343 344 344 346 346 346 346 346 346 346 340 337 339 339 340 341 342 340 341 341
348 348 348 349 348 347 348 347 349 350 350 351 349 350 350 350 349 347 346 345 341 346 344 341 346 345 345 346 346 346 346 347 345 338 337 338 339 339 340 341 342 343 342
347 349 348 348 350 348 347 348 349 347 350 350 352 350 351 350 349 348 346 345 344 341 348 340 345 347 347 347 347 347 347 346 342 338 338 338 338 339 339 340 341 342 343
347 347 349 348 347 346 345 345 344 345 350 349 346 350 350 351 350 349 347 346 347 344 342 342 343 345 346 347 347 346 345 343 341 338 338 337 336 335 336 337 339 340 342
347 347 348 349 348 348 347 348 349 349 350 350 350 350 350 349 350 350 350 349 349 347 345 344 343 345 347 345 345 344 343 341 340 338 337 336 335 337 337 337 335 337 340
349 349 348 348 349 349 347 347 347 347 348 348 348 351 351 350 350 349 350 350 350 348 346 345 345 344 345 345 344 344 343 341 339 338 336 335 336 338 338 338 337 337 335
348 349 348 346 347 348 348 348 346 346 347 347 348 347 349 351 351 351 351 351 350 350 347 347 344 342 344 344 344 342 339 339 339 338 335 335 336 337 338 336 336 337 337
348 348 347 347 348 348 346 345 347 348 349 350 350 350 349 349 349 349 351 352 352 350 349 347 344 341 342 342 341 341 339 336 337 339 336 335 335 336 336 336 335 336 336
348 349 350 351 352 351 351 351 350 350 351 352 350 349 351 351 350 350 348 349 351 352 349 347 345 345 343 341 340 340 338 335 333 337 334 335 335 334 334 336 336 335 335
351 351 352 352 352 352 351 350 351 350 350 351 349 348 348 350 349 350 349 350 350 351 350 351 348 346 346 345 344 340 338 337 338 338 335 331 334 334 335 334 335 335 335
352 352 352 352 353 352 351 350 350 350 350 350 350 350 349 349 349 349 349 350 350 348 349 349 350 350 348 348 346 346 342 339 338 337 337 332 335 333 335 334 335 334 334
351 352 351 351 349 347 345 343 343 343 342 343 344 345 344 346 348 349 349 349 350 349 347 348 349 350 350 348 348 345 341 338 336 334 334 334 333 332 332 333 334 334 332
351 351 350 347 344 340 335 333 332 332 334 336 338 339 340 342 343 346 347 348 348 349 349 348 347 347 348 349 347 347 345 339 339 332 334 332 331 331 328 331 333 331 330